Showing default

LEMUR 1, 40044

Orbit data source: Space-Track

LEMUR 1, 40044 is a payload satellite owned by NanoSatisfi (US) in SSO that was launched on Thu, 19 Jun 2014 UTC via a DNEPR launch vehicle from the Orenburg, Russia (OREN). Payload-class satellites include a variety of spacecraft equipped with specific instruments for various scientific and technological missions. These include communications satellites like Starlink; space stations such as the ISS; scientific satellites like the Hubble; Earth observation satellites from companies like Planet Labs, Umbra, and HawkEye 360; GPS; miniature CubeSats for education and research; and military/defense satellites.

Loading next visibility...
Identifier
40044, 2014-033AL
Orbit
SSO
Country
Flag of USUS
Related business
Manufacturer
NanoSatisfi
Mission
Operational Commercial Technology
Bus & Motor
CUBESAT 3U, Unknown motor
Mass
~4 kg wet, ~4 kg dry
Launch date (UTC)
2014-06-19 (12 years ago)
Launch vehicle
DNEPR
Launch site
Orenburg, Russia (OREN)
Object type
Payload
Rocket body
Debris
Shape & HBR
Box, 1.0 m
Radar Cross Section
0.093 m², Small (<0.1 m²)

Expand to show TLE details & history
Last TLE update: 17 hours ago

TLE from 17 hours ago
0 LEMUR 1
1 40044U 14033AL  26070.92986186  .00002410  00000-0  28406-3 0  9997
2 40044  97.7720 222.9998 0049354  38.6128 321.8599 14.84814774631038
Epoch: 2026-03-11T22:19Z
TLE epoch observation values (Epoch: 2026-03-11T22:19:00.064Z)
Latitude
-0.00008°
Longitude
78.6625°
Altitude
590.117 km
Speed
7.58 km/s
True Right ascension
14h 51m 59s
True Declination
0° 00' 00"
Sunlit
Object was in full shadow at epoch
Visualization orbit readout
Latitude
Unknown
Longitude
Unknown
Altitude
Unknown
Speed
Unknown
Apparent Right ascension
Unknown
Apparent Declination
Unknown
Sunlit
N/A
Visualization observer readout
Local Sidereal Time
19:35:56
Azimuth
Unknown
Elevation
Unknown
Doppler factor
Unknown
Orbital elements
Apogee altitude
645.691 km
Perigee altitude
576.701 km
Semi-major axis
6,989.333 km
Eccentricity
0.00494
Inclination
97.772°
RAAN
222.9998°
Arg. of periapsis
38.6128°
True anomaly
321.50892°
Mean anomaly
321.8599°
Eccentric anomaly
321.68458°
Mean motion
3.71441 °/min
Orbital period
96.92 mins
BSTAR
0.00028406
Loading maneuver chart data...
Computing Atmospheric mass density...
Loading historical data...
Loading historical data...
Loading historical data...
Loading historical data...
Loading historical data...
Loading historical data...
Loading historical data...

Documentation

Showing up to 5 results
|